Wind_Speed
5 5 3 3 5 9 13 16 16 16 11 19 11 17 11 12 8 10 13 14 14 14 20 26 32 37 43 47 52 55 56 56 58 56 52 50 52 53 54 53 58 64 65 47
5 7 4 5 7 11 14 13 13 9 18 22 14 18 7 4 6 14 15 16 18 20 22 28 33 37 41 47 55 62 64 60 62 63 63 62 56 57 59 59 56 60 70 77
5 5 5 6 8 11 13 11 15 20 22 14 16 10 10 8 10 13 16 16 18 22 28 35 38 45 54 57 59 63 66 68 70 70 69 67 64 60 61 62 61 58 61 76
4 5 5 7 8 12 11 15 16 21 17 5 12 6 9 7 11 14 16 18 22 28 35 42 50 55 55 59 65 67 59 52 49 52 58 61 64 64 61 62 63 63 60 66
5 6 6 6 7 11 8 17 19 12 10 11 5 5 4 10 9 14 19 25 27 33 40 52 53 54 57 61 50 44 45 47 49 48 48 51 54 58 62 63 64 62 64 62
8 7 7 6 8 11 11 13 13 7 6 2 1 2 15 8 10 16 23 24 28 42 49 50 51 56 60 52 42 43 44 43 43 46 46 47 49 51 53 58 65 64 61 66
7 7 6 6 8 9 14 12 4 5 2 4 2 6 16 13 18 26 23 25 39 47 49 50 54 62 55 41 42 42 44 42 40 41 42 43 46 48 51 52 57 63 58 63
4 4 5 5 8 7 7 5 2 4 2 6 17 9 7 18 21 23 23 33 45 47 47 52 59 56 41 40 40 40 42 40 38 39 40 40 41 45 48 50 51 55 54 55
3 3 6 9 9 6 4 0 1 3 5 3 7 14 27 15 16 19 26 40 45 46 49 55 57 42 38 39 41 42 43 43 41 38 38 38 37 39 41 44 45 48 48 47
4 5 8 7 9 8 6 3 1 2 1 5 9 15 23 18 16 20 32 42 44 45 49 56 49 39 37 38 41 41 41 41 41 37 35 33 31 31 33 38 39 41 42 41
6 6 5 8 7 7 7 6 4 3 4 5 3 12 20 13 15 28 37 39 43 45 50 56 45 39 39 41 41 42 37 36 35 30 29 27 22 23 26 29 31 33 36 37
8 6 7 10 12 11 10 11 11 6 6 9 3 20 11 11 27 34 35 37 39 40 47 53 47 39 40 41 39 36 30 31 27 24 20 21 14 12 15 16 20 23 27 31
7 6 4 5 6 9 13 15 16 17 19 14 5 15 20 26 30 29 33 34 36 39 43 50 48 40 37 39 36 34 27 26 23 19 17 13 10 5 3 11 16 19 23 26
12 13 14 14 14 18 21 23 21 18 13 14 34 44 25 26 27 23 27 31 34 36 41 47 48 42 36 38 36 28 24 22 20 16 15 12 9 3 7 12 19 23 23 22
15 17 18 21 21 24 30 30 30 32 32 26 39 41 29 28 24 24 27 30 31 32 36 43 47 42 37 35 33 23 20 21 19 17 14 10 10 7 7 13 18 22 20 21
21 15 17 25 24 21 28 28 29 31 31 37 35 35 22 21 21 23 25 27 28 30 33 37 44 45 39 34 31 27 19 20 13 18 11 10 7 3 3 10 10 15 22 20
18 13 10 14 19 25 23 4 9 17 19 23 27 23 18 17 20 20 22 24 26 27 28 32 38 45 41 35 31 25 20 21 15 14 17 7 7 7 5 8 8 12 16 10
20 17 12 14 19 3 6 12 21 15 22 22 16 17 18 17 16 17 20 22 24 25 25 28 32 38 41 37 32 26 19 17 18 20 19 12 6 7 6 9 14 14 16 13
26 22 10 6 8 20 23 14 12 14 19 16 11 21 19 18 18 15 19 20 22 23 22 24 27 31 36 37 34 28 21 17 16 19 23 23 18 10 10 14 11 22 22 19
32 28 22 12 6 6 4 11 15 17 16 5 23 23 20 19 19 16 17 19 20 21 20 20 22 25 27 32 34 30 23 21 21 23 24 24 27 27 25 26 27 28 26 27
22 27 30 29 14 14 21 21 18 6 11 22 24 27 24 19 19 17 15 17 18 19 19 17 18 20 19 22 26 28 29 27 25 23 22 24 25 26 27 27 28 27 27 27
21 14 17 19 13 13 10 7 12 20 25 23 27 24 24 21 18 18 15 15 16 17 18 17 15 16 16 16 18 20 21 28 29 26 23 24 26 29 30 31 33 33 32 32
26 28 18 20 14 13 14 26 28 26 28 26 28 25 27 21 19 18 15 13 15 15 15 15 14 13 13 12 12 15 16 18 21 23 24 26 27 26 27 27 28 27 27 25
27 27 30 30 31 28 30 25 29 30 26 24 23 28 26 20 20 17 14 12 13 14 14 13 12 10 9 8 9 9 11 12 16 16 17 18 19 20 21 20 21 19 21 20
24 25 29 35 28 26 24 21 23 27 28 27 28 26 23 21 18 16 14 12 12 14 13 12 11 10 8 6 5 6 8 8 10 11 12 14 15 15 15 16 15 15 14 13
33 32 33 31 24 27 23 21 20 20 18 20 21 19 19 19 16 15 13 12 12 14 13 12 11 10 8 6 5 4 3 5 6 7 8 9 9 9 9 9 8 8 8 7
Wind_Direction
223 212 225 307 343 345 337 339 335 333 316 318 312 317 322 316 308 323 309 285 293 284 288 305 312 314 314 310 307 305 301 298 292 289 283 275 266 255 251 248 244 236 229 225
234 221 281 318 340 341 344 339 330 329 316 311 313 321 305 331 305 316 318 312 307 295 299 301 305 305 303 299 297 297 293 290 286 283 280 278 272 263 252 246 245 240 232 235
253 217 293 318 324 340 339 334 326 321 322 314 318 304 293 270 299 313 305 288 282 289 295 302 305 302 299 297 295 293 291 289 284 280 276 272 269 265 257 248 242 242 235 234
235 233 286 303 319 339 334 335 321 316 316 316 329 283 286 266 298 300 278 277 287 294 297 299 301 303 304 302 298 294 293 291 288 283 279 273 267 261 256 252 244 237 237 232
251 272 274 281 312 338 317 328 316 312 300 309 267 294 251 268 284 300 286 296 297 301 304 309 310 309 308 308 302 298 296 295 292 288 281 276 271 262 255 250 248 239 233 235
246 271 264 261 300 329 327 325 319 310 308 310 248 340 281 237 293 290 298 296 305 311 313 313 315 314 314 311 307 306 305 300 295 290 285 277 272 266 259 251 246 242 235 232
267 262 244 271 290 312 336 344 337 355 352 222 250 270 263 278 296 307 298 306 313 317 318 321 320 322 320 317 314 312 310 307 300 294 287 282 275 266 258 255 248 242 237 231
235 253 222 265 287 292 324 26 88 236 282 289 291 231 277 303 303 298 291 308 319 319 324 328 328 325 321 322 324 318 316 314 307 301 296 287 278 269 259 253 250 240 235 230
252 249 249 274 279 289 293 289 327 247 292 323 260 276 294 275 308 305 303 313 322 326 332 332 331 330 327 329 328 325 323 321 317 308 300 289 282 270 261 253 249 241 228 226
241 283 263 254 273 268 239 269 241 217 9 302 279 282 265 305 317 312 314 323 327 333 334 336 335 331 330 328 328 326 323 322 318 315 310 301 285 269 262 253 246 238 227 223
260 248 252 262 251 256 247 241 217 236 218 178 293 278 303 286 323 328 322 328 331 336 338 339 336 333 333 328 327 327 323 323 323 323 320 314 290 271 262 252 241 230 225 221
244 262 252 261 269 262 253 256 243 209 215 218 230 274 272 293 331 327 321 330 333 336 339 343 341 336 333 339 334 337 329 327 330 333 333 332 328 289 259 239 225 217 214 210
203 227 273 266 261 269 260 271 257 247 248 232 178 266 305 313 322 314 323 328 334 340 341 349 348 342 336 339 337 337 328 333 341 346 347 347 348 2 226 178 169 171 176 181
241 250 239 241 277 286 279 282 273 248 237 249 249 283 312 314 311 313 324 331 339 340 347 351 354 353 348 346 342 341 342 339 350 358 8 11 15 56 128 148 151 153 162 178
242 255 262 277 281 284 285 283 275 259 261 250 288 287 317 314 309 319 329 336 337 343 350 355 358 359 358 355 353 356 1 350 352 6 16 36 46 66 104 146 155 162 178 196
246 254 273 285 295 291 293 287 277 271 267 270 286 292 330 311 307 321 328 333 338 345 352 358 2 4 4 4 4 1 7 353 9 14 20 11 8 115 132 152 173 195 190 193
243 247 266 279 289 303 297 274 291 293 291 289 278 316 315 309 306 319 325 334 341 343 352 360 5 9 9 10 9 6 17 25 17 16 21 35 11 70 150 180 180 166 168 188
247 252 252 275 295 302 263 289 300 287 292 289 296 323 314 308 305 314 326 336 343 345 351 0 7 12 15 15 17 19 18 32 36 32 29 39 39 65 109 168 151 193 230 151
246 246 241 250 243 277 286 268 266 288 297 291 315 329 324 311 311 314 326 336 344 346 349 357 4 13 16 22 23 24 31 46 45 48 52 52 64 82 87 149 158 148 146 138
234 236 232 227 237 227 273 271 287 295 304 281 327 327 321 314 309 312 324 333 343 345 347 353 2 10 15 22 32 31 31 46 58 61 66 68 70 78 91 101 108 112 116 121
213 227 228 234 240 263 280 275 272 259 306 316 316 319 317 314 311 309 315 327 337 342 345 349 359 5 10 21 30 37 42 41 47 54 64 74 81 84 86 89 91 97 101 106
237 216 209 213 221 263 257 207 264 307 309 307 310 314 319 316 310 304 304 321 334 337 340 347 354 358 5 17 26 28 37 53 53 54 60 68 76 81 82 85 89 89 90 93
232 228 235 223 257 257 260 287 296 297 304 297 296 304 311 307 302 296 295 314 329 332 333 344 348 349 356 12 25 34 30 51 62 62 61 64 66 70 77 82 85 86 89 91
244 242 242 259 266 266 274 290 292 294 293 294 286 298 301 299 294 291 287 301 319 324 325 334 345 339 344 352 9 25 38 40 61 64 66 68 73 75 74 76 81 84 91 89
255 249 255 261 268 284 291 288 288 285 287 284 283 290 294 288 294 286 274 286 304 315 314 318 329 337 325 329 342 15 33 48 55 66 69 73 74 73 76 78 73 80 79 78
254 259 253 268 294 291 294 286 275 275 286 290 287 290 295 292 290 278 267 274 292 306 309 303 308 319 318 296 302 328 21 31 39 51 55 60 64 66 69 71 74 75 73 71
Height
3086 3087 3085 3085 3083 3082 3080 3077 3074 3073 3071 3068 3066 3062 3058 3056 3053 3051 3050 3049 3046 3045 3043 3041 3037 3033 3028 3024 3019 3013 3008 3005 3002 2998 2995 2992 2990 2992 2994 2995 2996 2999 3005 3007
3085 3084 3082 3081 3080 3079 3075 3072 3070 3069 3067 3062 3059 3057 3056 3053 3050 3048 3045 3043 3042 3041 3039 3036 3031 3026 3021 3014 3008 3002 2996 2990 2986 2981 2978 2974 2973 2971 2975 2978 2980 2984 2991 2993
3081 3082 3080 3078 3077 3076 3073 3071 3068 3066 3061 3058 3054 3051 3051 3050 3045 3044 3041 3040 3039 3036 3033 3028 3023 3019 3012 3003 2994 2985 2978 2971 2965 2959 2955 2954 2953 2952 2952 2957 2963 2969 2974 2978
3079 3078 3077 3076 3076 3074 3071 3069 3066 3062 3059 3056 3055 3051 3047 3046 3043 3041 3038 3037 3034 3030 3026 3021 3014 3006 2996 2987 2977 2967 2957 2950 2945 2939 2932 2930 2929 2930 2932 2935 2941 2950 2955 2961
3077 3075 3074 3074 3073 3072 3071 3067 3063 3060 3057 3055 3054 3051 3043 3043 3041 3039 3035 3033 3029 3024 3018 3010 3001 2991 2981 2969 2958 2950 2942 2935 2928 2922 2917 2911 2907 2908 2910 2914 2919 2929 2937 2942
3074 3073 3072 3071 3071 3070 3068 3065 3060 3058 3058 3057 3054 3054 3038 3039 3037 3036 3033 3028 3023 3016 3008 3000 2989 2978 2964 2952 2943 2936 2928 2921 2913 2905 2900 2895 2891 2890 2890 2893 2898 2906 2918 2925
3071 3070 3070 3069 3069 3068 3067 3063 3060 3063 3062 3059 3051 3051 3036 3035 3032 3028 3025 3021 3016 3008 2997 2987 2975 2961 2947 2939 2931 2923 2916 2908 2899 2891 2885 2879 2874 2874 2873 2875 2879 2887 2898 2907
3067 3068 3068 3067 3068 3066 3064 3063 3063 3075 3071 3057 3048 3041 3031 3030 3027 3023 3019 3015 3008 2999 2989 2977 2963 2949 2938 2930 2922 2913 2904 2895 2887 2877 2870 2865 2860 2857 2857 2860 2863 2869 2881 2891
3065 3065 3065 3065 3064 3066 3061 3062 3062 3062 3063 3062 3043 3032 3028 3024 3022 3019 3016 3009 3000 2990 2978 2966 2954 2941 2932 2923 2914 2903 2893 2884 2875 2866 2858 2852 2847 2843 2842 2845 2849 2856 2867 2877
3064 3063 3062 3062 3062 3061 3060 3061 3059 3061 3067 3066 3039 3032 3023 3018 3017 3014 3010 3001 2991 2982 2972 2959 2946 2935 2926 2917 2907 2897 2887 2876 2866 2856 2848 2840 2835 2832 2832 2833 2838 2846 2857 2866
3060 3061 3062 3060 3058 3057 3057 3055 3056 3058 3058 3061 3059 3026 3018 3015 3013 3010 3002 2995 2985 2975 2965 2954 2941 2930 2920 2911 2901 2890 2880 2871 2861 2851 2841 2833 2827 2824 2823 2825 2830 2838 2848 2857
3056 3056 3056 3057 3055 3053 3052 3051 3052 3052 3053 3052 3050 3020 3014 3011 3008 3003 2997 2990 2983 2974 2963 2950 2935 2925 2915 2904 2894 2884 2875 2867 2857 2848 2839 2831 2823 2820 2819 2820 2826 2833 2842 2851
3052 3052 3054 3052 3053 3050 3047 3046 3046 3045 3046 3042 3046 3015 3010 3009 3006 3001 2992 2988 2980 2970 2961 2947 2933 2921 2911 2900 2891 2881 2873 2865 2857 2849 2841 2834 2828 2823 2821 2821 2825 2832 2841 2850
3048 3047 3048 3047 3046 3044 3041 3040 3038 3039 3038 3030 3019 3008 3006 3006 3000 2996 2991 2984 2975 2967 2957 2946 2933 2920 2908 2898 2886 2879 2871 2865 2859 2851 2845 2839 2834 2830 2828 2828 2830 2836 2844 2851
3044 3042 3042 3040 3041 3038 3033 3031 3029 3025 3024 3022 3008 3006 3000 2999 2994 2990 2984 2978 2973 2966 2957 2946 2933 2920 2909 2899 2888 2879 2872 2867 2862 2855 2849 2845 2840 2836 2835 2834 2836 2840 2845 2849
3037 3037 3037 3033 3033 3030 3024 3020 3019 3017 3015 3009 3004 2998 3000 2994 2989 2985 2980 2976 2970 2963 2956 2947 2935 2923 2911 2901 2890 2881 2874 2869 2863 2857 2853 2848 2845 2843 2842 2841 2842 2843 2844 2850
3033 3032 3033 3029 3027 3024 3017 3009 3011 3009 3007 3006 3000 2997 2994 2990 2985 2982 2978 2973 2968 2962 2956 2948 2937 2926 2914 2904 2894 2885 2878 2873 2868 2863 2856 2850 2847 2845 2842 2844 2845 2847 2853 2852
3026 3028 3029 3027 3025 3024 3008 3007 3006 3005 3002 3000 2997 2994 2990 2986 2982 2978 2975 2970 2966 2961 2955 2948 2940 2931 2920 2909 2900 2891 2884 2879 2874 2869 2862 2857 2852 2847 2848 2847 2849 2851 2852 2851
3021 3023 3025 3025 3020 3010 3004 3002 3002 3001 2997 2994 2993 2990 2986 2982 2978 2975 2972 2968 2964 2960 2955 2949 2942 2934 2926 2916 2907 2899 2893 2885 2880 2875 2870 2864 2860 2857 2854 2853 2855 2855 2855 2858
3011 3015 3021 3020 3017 3010 2999 3000 2998 2997 2992 2991 2989 2986 2983 2978 2974 2971 2968 2965 2962 2958 2953 2948 2943 2937 2931 2924 2914 2907 2901 2895 2888 2882 2878 2874 2871 2868 2866 2864 2863 2863 2863 2865
3002 3005 3009 3013 3009 2997 2994 2994 2995 2996 2993 2987 2984 2980 2977 2974 2971 2967 2965 2962 2959 2956 2953 2948 2944 2939 2935 2929 2922 2915 2909 2903 2897 2892 2887 2883 2880 2878 2876 2875 2874 2874 2874 2875
2995 2997 2998 3004 3004 2994 2986 2988 2990 2988 2984 2982 2979 2975 2972 2969 2966 2963 2961 2960 2957 2955 2952 2948 2944 2940 2937 2932 2928 2923 2917 2910 2905 2902 2898 2894 2891 2888 2886 2885 2884 2884 2886 2886
2989 2986 2988 2990 2984 2983 2983 2983 2983 2981 2978 2976 2973 2970 2967 2964 2962 2960 2958 2957 2955 2952 2950 2947 2944 2941 2938 2934 2931 2927 2923 2917 2913 2910 2908 2905 2902 2900 2897 2896 2895 2895 2896 2896
2977 2979 2978 2981 2974 2977 2979 2978 2976 2974 2971 2969 2967 2964 2961 2959 2957 2956 2955 2954 2952 2950 2948 2946 2942 2940 2937 2935 2932 2929 2926 2923 2919 2916 2914 2911 2909 2907 2906 2905 2903 2903 2902 2902
2973 2972 2972 2967 2968 2972 2972 2971 2969 2967 2964 2961 2960 2958 2956 2954 2953 2952 2951 2950 2949 2947 2946 2943 2941 2939 2937 2934 2932 2930 2928 2926 2924 2921 2919 2916 2915 2913 2912 2910 2910 2909 2909 2908
2963 2964 2964 2960 2966 2965 2963 2962 2960 2959 2958 2955 2954 2952 2951 2949 2949 2948 2947 2946 2945 2944 2942 2940 2938 2937 2935 2933 2932 2930 2929 2927 2926 2924 2922 2920 2918 2917 2915 2914 2913 2913 2912 2912